Terminal Aerodrome Forecast
Issued by NWS Miami, FL

Home | Current Version | Previous Version | Text Only | Print | Product List | Glossary On
Versions: 1 2 3 4 5 6 7 8 9 10 11 12 13 14 15 16 17 18 19 20 21 22 23 24 25 26 27 28 29 30
000
FTUS42 KMFL 090521
TAFAPF
TAF
KAPF 090521Z 0906/1006 01008KT P6SM BKN040 OVC100
     FM091400 04017G27KT P6SM VCSH SCT050 BKN120
     FM092100 03011KT P6SM SCT060 BKN150=

USA.gov is the U.S. government's official web portal to all federal, state and local government web resources and services.